Location: Dal�� Lhota
(48.7500°N, 14.0167°E)
Time: 17:38:42
(UTC+00:00)

Explorer 11/Cluster Stage 4 - All Passes

Search period start: 27 July 2021 00:00
Search period end: 06 August 2021 00:00
Orbit: 467 x 1257 km, 28.8° (Epoch: 26 July)

Date Brightness Start Highest point End Pass type
(mag) Time Alt. Az. Time Alt. Az. Time Alt. Az.
27 Jul - 10:56:01 10° SSW 10:59:02 13° S 11:01:53 10° SSE daylight
27 Jul - 12:44:06 10° SSW 12:46:34 12° S 12:48:54 10° SSE daylight
28 Jul - 10:44:01 10° SSW 10:47:39 14° S 10:51:04 10° SSE daylight
28 Jul - 12:32:25 10° SW 12:35:13 13° S 12:37:50 10° SSE daylight
29 Jul - 08:48:06 10° SSE 08:48:34 10° SSE 08:49:01 10° SSE daylight
29 Jul - 10:32:09 10° SSW 10:36:13 15° S 10:40:05 10° SE daylight
29 Jul - 12:20:49 10° SW 12:23:49 13° SSW 12:26:39 10° SSE daylight
30 Jul - 08:34:47 10° S 08:37:06 11° SSE 08:39:24 10° SE daylight
30 Jul - 10:20:23 10° SSW 10:24:48 16° S 10:29:00 10° SE daylight
30 Jul - 12:09:18 10° SW 12:12:25 13° SSW 12:15:22 10° S daylight
31 Jul - 08:22:31 10° S 08:25:38 13° SSE 08:28:43 10° SE daylight
31 Jul - 10:08:42 10° SW 10:13:22 16° S 10:17:48 10° SE daylight
31 Jul - 11:57:51 10° SW 12:00:59 13° SSW 12:03:58 10° S daylight
01 Aug - 08:10:32 10° SSW 08:14:09 14° SSE 08:17:46 10° SE daylight
01 Aug - 09:57:06 10° SW 10:01:54 17° S 10:06:32 10° SE daylight
01 Aug - 11:46:31 10° SW 11:49:32 13° SSW 11:52:27 10° S daylight
02 Aug - 07:58:43 10° SSW 08:02:40 14° SSE 08:06:39 10° SE daylight
02 Aug - 09:45:34 10° SW 09:50:26 17° S 09:55:10 10° SE daylight
02 Aug - 11:35:17 10° SW 11:38:04 12° SSW 11:40:47 10° S daylight
03 Aug - 07:47:02 10° SSW 07:51:11 15° SSE 07:55:25 10° SE daylight
03 Aug - 09:34:06 10° SW 09:38:57 17° S 09:43:45 10° SSE daylight
03 Aug - 11:24:13 10° SW 11:26:36 11° SSW 11:28:56 10° S daylight
04 Aug - 07:35:28 10° SSW 07:39:43 15° S 07:44:05 10° SE daylight
04 Aug - 09:22:43 10° SW 09:27:29 17° S 09:32:13 10° SSE daylight
04 Aug - 11:13:28 10° SSW 11:15:07 11° SSW 11:16:44 10° S daylight
05 Aug - 07:23:58 10° SSW 07:28:14 16° S 07:32:40 10° SE daylight
05 Aug - 09:11:25 10° SW 09:16:00 16° S 09:20:38 10° SSE daylight
